User: anonymous   Login
Location: Unspecified
(0.0000°N, 0.0000°E)
Time: 14:33:41
(UTC+00:00)
Language:

Transit 2A - Orbit

View from above orbital plane
View from above orbital plane
View from above satellite
View from above satellite

Ground track
Ground track

The orbit data is extracted from the following two-line orbital elements,

1    45U 60007A   22223.77442492  .00000155  00000-0  66384-4 0  9994
2    45  66.6945 111.1569 0247567 104.4321 258.4389 14.33884726235282
Epoch (UTC): 11 August 2022 18:35:10
Eccentricity: 0.0247567
inclination: 66.6945°
perigee height: 601 km
apogee height: 956 km
right ascension of ascending node: 111.1569°
argument of perigee: 104.4321°
revolutions per day: 14.33884726
mean anomaly at epoch: 258.4389°
orbit number at epoch: 23528

The dashed part of the orbit path shows where the satellite is in the earth's shadow,  

DLR